Home > Weather > Venice > Past weeks

Flag for Italy Past Weather in Venice, Italy — Yesterday and Last 2 Weeks

Now
70 °F

Clear.


Feels Like: 70 °F
Forecast: 74 / 87 °F
Wind: 6 mph from Northwest

Location: Venice / Tessera

Current Time: Jul 29, 2016 at 4:16:14 AM

Latest Report: Jul 29, 2016 at 3:20 AM


Visibility: 10 mi

Pressure: 29.95 "Hg

Humidity: 94%

Dew Point: 68 °F

Location of VeniceLocation

Past Weather in Venice — Graph

°F

Venice Temperature Yesterday

Maximum temperature yesterday: 81 °F (at 3:20 PM)
Minimum temperature yesterday: 66 °F (at 10:50 AM)
Average temperature yesterday: 74 °F

High & Low Weather Summary for the Past Weeks

 TemperatureHumidityPressure
High90 °F (Jul 25, 3:50 PM)94% (Jul 18, 5:20 AM)30.12 "Hg (Jul 18, 5:20 AM)
Low61 °F (Jul 15, 12:20 AM)31% (Jul 19, 5:20 PM)29.68 "Hg (Jul 14, 2:20 AM)
Average76 °F64%29.98 "Hg
* Reported Jul 14 2:20 AM — Jul 29 2:50 AM, Venice, Weather by CustomWeather, © 2016

Note: Actual official high and low records may vary slightly from our data, if they occured in-between our weather recording intervals... More about our weather records

Advertising

Venice Weather History for the Previous 24 Hours

Scroll right to see more
 ConditionsComfort  
Time TempWeatherWind HumidityBarometerVisibility
2:50 AM
Fri, Jul 29
72 °FClear.5 mph88%29.95 "Hg10 mi
2:20 AM72 °FClear.6 mph88%29.95 "Hg10 mi
1:50 AM73 °FClear.7 mph78%29.95 "Hg10 mi
1:20 AM72 °FPassing clouds.7 mph88%29.95 "HgN/A
12:50 AM73 °FPassing clouds.6 mph83%29.95 "HgN/A
12:20 AM73 °FPassing clouds.3 mph89%29.95 "HgN/A
11:50 PM
Thu, Jul 28
73 °FPassing clouds.3 mph83%29.95 "HgN/A
11:20 PM75 °FPassing clouds.3 mph83%29.95 "HgN/A
10:50 PM75 °FPassing clouds.3 mph83%29.95 "HgN/A
10:20 PM75 °FPassing clouds.3 mph83%29.95 "HgN/A
9:50 PM75 °FPassing clouds.3 mph78%29.95 "HgN/A
9:20 PM77 °FPassing clouds.2 mph74%29.95 "HgN/A
8:50 PM77 °FSunny.2 mph74%29.92 "Hg10 mi
8:20 PM77 °FSunny.5 mph74%29.92 "Hg10 mi
7:50 PM77 °FPassing clouds.3 mph74%29.92 "HgN/A
7:20 PM79 °FPassing clouds.6 mph70%29.92 "HgN/A
6:50 PM79 °FSunny.8 mph70%29.92 "Hg10 mi
6:20 PM79 °FPassing clouds.10 mph65%29.92 "HgN/A
5:50 PM81 °FPassing clouds.6 mph58%29.92 "HgN/A
5:20 PM81 °FPassing clouds.6 mph58%29.92 "HgN/A
4:50 PM81 °FPassing clouds.6 mph58%29.92 "HgN/A
4:20 PM81 °FSunny.6 mph58%29.95 "Hg10 mi
3:50 PM79 °FSunny.5 mph61%29.95 "Hg10 mi
3:20 PM81 °FSunny.3 mph62%29.95 "Hg10 mi
2:50 PM79 °FSunny.6 mph65%29.95 "Hg10 mi
2:20 PM77 °FPassing clouds.7 mph69%29.95 "HgN/A
1:50 PM73 °FPassing clouds.7 mph83%29.98 "HgN/A
1:20 PM73 °FPassing clouds.7 mph83%29.98 "HgN/A
12:50 PM68 °FLight rain. Scattered clouds.7 mph94%29.98 "HgN/A
12:20 PM68 °FLight rain. Scattered clouds.5 mph94%30.01 "HgN/A
11:50 AM68 °FLight rain. Broken clouds.2 mph94%30.01 "HgN/A
11:20 AM66 °FLight rain. Broken clouds.2 mph94%30.01 "HgN/A
10:50 AM66 °FRain. Partly sunny.2 mph94%30.01 "Hg4 mi
10:20 AM68 °FRain. Partly sunny.5 mph88%30.01 "Hg2 mi
8:50 AM68 °FLots of rain. Broken clouds.13 mph88%29.98 "Hg2 mi
8:20 AM70 °FPartly sunny.9 mph88%29.95 "HgN/A
7:50 AM70 °FThundershowers. Broken clouds.10 mph88%29.98 "Hg6 mi
7:20 AM70 °FLight rain. Broken clouds.9 mph78%29.95 "HgN/A
6:50 AM70 °FScattered showers. Broken clouds.9 mph83%29.95 "HgN/A
6:20 AM70 °FLight rain. Partly cloudy.12 mph83%29.92 "HgN/A
5:50 AM70 °FPartly cloudy.9 mph83%29.95 "HgN/A
5:20 AM70 °FPartly cloudy.15 mph88%29.92 "HgN/A
4:50 AM70 °FPartly cloudy.10 mph83%29.95 "HgN/A
4:20 AM72 °FPassing clouds.13 mph78%29.95 "HgN/A
Weather by CustomWeather, © 2016

See weather overviewHow to use our weather pages